Flag for Austria Past Weather in Gerasdorf bei Wien, Lower Austria, Austria — Yesterday and Last 2 Weeks

Now
64 °F

Mild.


Feels Like: 64 °F
Forecast: 60 / 74 °F
Wind: 1 mph from Northwest

Location: Wien / Hohe Warte

Current Time: May 29, 2016 at 4:05:47 AM

Latest Report: May 29, 2016 at 3:00 AM


Visibility: N/A

Pressure: 29.79 "Hg

Humidity: 95%

Dew Point: 63 °F

Location of Gerasdorf bei WienLocation

Past Weather in Gerasdorf bei Wien — Graph

°F

Gerasdorf bei Wien Temperature Yesterday

Maximum temperature yesterday: 81 °F (at 3:00 PM)
Minimum temperature yesterday: 60 °F (at 6:00 AM)
Average temperature yesterday: 70 °F

High & Low Weather Summary for the Past Weeks

 TemperatureHumidityPressure
High81 °F (May 28, 3:00 PM)95% (May 29, 2:00 AM)30.13 "Hg (May 29, 2:00 AM)
Low44 °F (May 16, 4:00 AM)36% (May 18, 1:00 PM)29.44 "Hg (May 14, 3:00 AM)
Average61 °F67%29.92 "Hg
* Reported May 14 3:00 AM — May 29 3:00 AM, Gerasdorf bei Wien, Weather by CustomWeather, © 2016

Note: Actual official high and low records may vary slightly from our data, if they occured in-between our weather recording intervals... More about our weather records

Advertising

Gerasdorf bei Wien Weather History for the Previous 24 Hours

Scroll right to see more
 ConditionsComfort  
Time TempWeatherWind HumidityBarometerVisibility
3:00 AM
Sun, May 29
64 °FMild.1 mph95%29.79 "HgN/A
2:00 AM65 °FPassing clouds.3 mph95%29.79 "Hg17 mi
1:00 AM65 °FMild.3 mph92%29.81 "HgN/A
12:00 AM69 °FMild.5 mph80%29.82 "HgN/A
11:00 PM
Sat, May 28
72 °FSprinkles. Overcast.2 mph67%29.81 "Hg16 mi
10:00 PM73 °FOvercast.3 mph60%29.81 "Hg16 mi
9:00 PM75 °FOvercast.2 mph59%29.81 "Hg16 mi
8:00 PM77 °FWarm.5 mph51%29.80 "HgN/A
3:00 PM81 °FScattered clouds.6 mph50%29.85 "Hg22 mi
2:00 PM80 °FPartly sunny.5 mph50%29.87 "Hg22 mi
1:00 PM77 °FScattered clouds.5 mph60%29.89 "Hg19 mi
12:00 PM77 °FWarm.5 mph61%29.90 "HgN/A
11:00 AM75 °FPassing clouds.3 mph64%29.91 "Hg17 mi
10:00 AM73 °FPassing clouds.2 mph65%29.93 "Hg15 mi
9:00 AM72 °FPassing clouds.2 mph68%29.93 "Hg16 mi
7:00 AM64 °FPassing clouds.2 mph82%29.94 "Hg19 mi
6:00 AM60 °FOvercast.2 mph88%29.95 "Hg16 mi
5:00 AM60 °FCool.3 mph86%29.94 "HgN/A
4:00 AM61 °FOvercast.No wind86%29.94 "Hg19 mi
Weather by CustomWeather, © 2016

See weather overviewHow to use our weather pages